• In Moldova, Republic
  • List of Countries
  • For 7 days
  • Water Temperature
  • Satellite Maps
  • Weather Map
  • Weather Widgets
  • user-avatar
    Login

    Hourly Weather Igls

    Today, 18 August, Friday

    Time Temperature Precipitation Wind Pressure Humidity
    00:00 +18°C° 0 mm 1 mps 688 mmHg 89%
    01:00 +17°C° 0 mm 2 mps 688 mmHg 90%
    02:00 +17°C° 0 mm 2 mps 688 mmHg 90%
    03:00 +16°C° 0 mm 1 mps 688 mmHg 90%
    04:00 +16°C° 0 mm 1 mps 688 mmHg 91%
    05:00 +18°C° 0 mm 1 mps 688 mmHg 89%
    06:00 +19°C° 0 mm 1 mps 688 mmHg 87%
    07:00 +20°C° 0 mm 2 mps 688 mmHg 83%
    08:00 +23°C° 0 mm 2 mps 688 mmHg 74%
    09:00 +25°C° 0 mm 1 mps 688 mmHg 66%
    10:00 +27°C° 0 mm 1 mps 689 mmHg 57%
    11:00 +28°C° 0.1 mm 2 mps 688 mmHg 55%
    12:00 +29°C° 0.1 mm 2 mps 688 mmHg 53%
    13:00 +29°C° 0 mm 2 mps 688 mmHg 53%
    14:00 +28°C° 0.4 mm 2 mps 687 mmHg 56%
    15:00 +28°C° 0.4 mm 2 mps 687 mmHg 58%
    16:00 +27°C° 0.4 mm 2 mps 686 mmHg 61%
    17:00 +26°C° 1 mm 2 mps 686 mmHg 69%
    18:00 +24°C° 1 mm 2 mps 686 mmHg 77%
    19:00 +23°C° 1 mm 2 mps 685 mmHg 85%
    20:00 +20°C° 1.5 mm 2 mps 686 mmHg 89%
    21:00 +19°C° 1.5 mm 2 mps 686 mmHg 92%
    22:00 +18°C° 1.5 mm 2 mps 686 mmHg 96%
    23:00 +18°C° 1.2 mm 2 mps 686 mmHg 97%

    Tomorrow, 19 August, Saturday

    Time Temperature Precipitation Wind Pressure Humidity
    00:00 +18°C° 1.2 mm 2 mps 686 mmHg 97%
    01:00 +18°C° 1.2 mm 1 mps 686 mmHg 97%
    02:00 +18°C° 4.7 mm 1 mps 686 mmHg 98%
    03:00 +18°C° 4.7 mm 1 mps 686 mmHg 98%
    04:00 +18°C° 4.7 mm 1 mps 686 mmHg 98%
    05:00 +16°C° 3.2 mm 1 mps 686 mmHg 98%
    06:00 +16°C° 3.2 mm 1 mps 686 mmHg 97%
    07:00 +16°C° 3.2 mm 1 mps 686 mmHg 97%
    08:00 +15°C° 1.6 mm 1 mps 686 mmHg 96%
    09:00 +15°C° 1.6 mm 1 mps 687 mmHg 96%
    10:00 +15°C° 1.6 mm 1 mps 687 mmHg 95%
    11:00 +15°C° 1.5 mm 1 mps 687 mmHg 94%
    12:00 +15°C° 1.5 mm 2 mps 687 mmHg 94%
    13:00 +15°C° 1.5 mm 2 mps 686 mmHg 93%
    14:00 +16°C° 1.2 mm 2 mps 687 mmHg 92%
    15:00 +16°C° 1.2 mm 2 mps 687 mmHg 91%
    16:00 +16°C° 1.2 mm 2 mps 687 mmHg 91%
    17:00 +15°C° 0.9 mm 2 mps 687 mmHg 92%
    18:00 +15°C° 0.9 mm 2 mps 687 mmHg 93%
    19:00 +14°C° 0.9 mm 2 mps 687 mmHg 95%
    20:00 +14°C° 0.3 mm 2 mps 687 mmHg 95%
    21:00 +13°C° 0.3 mm 2 mps 687 mmHg 95%
    22:00 +13°C° 0.3 mm 2 mps 688 mmHg 95%
    23:00 +12°C° 0.1 mm 2 mps 688 mmHg 96%

    Day after tomorrow, 20 August, Sunday

    Time Temperature Precipitation Wind Pressure Humidity
    00:00 +12°C° 0.1 mm 2 mps 688 mmHg 96%
    01:00 +10°C° 0.1 mm 2 mps 688 mmHg 96%
    02:00 +10°C° 0 mm 2 mps 688 mmHg 96%
    03:00 +10°C° 0 mm 2 mps 688 mmHg 96%
    04:00 +10°C° 0 mm 2 mps 688 mmHg 96%
    05:00 +10°C° 0.1 mm 2 mps 688 mmHg 95%
    06:00 +12°C° 0.1 mm 2 mps 688 mmHg 94%
    07:00 +12°C° 0.1 mm 2 mps 689 mmHg 92%
    08:00 +14°C° 0.1 mm 2 mps 689 mmHg 86%
    09:00 +15°C° 0.1 mm 2 mps 689 mmHg 80%
    10:00 +16°C° 0.1 mm 2 mps 689 mmHg 74%
    11:00 +17°C° 0.1 mm 2 mps 689 mmHg 67%
    12:00 +18°C° 0.1 mm 2 mps 689 mmHg 60%
    13:00 +19°C° 0.1 mm 2 mps 689 mmHg 53%
    14:00 +19°C° 0.1 mm 2 mps 689 mmHg 53%
    15:00 +19°C° 0.1 mm 2 mps 689 mmHg 54%
    16:00 +19°C° 0.1 mm 2 mps 689 mmHg 55%
    17:00 +17°C° 0.1 mm 2 mps 689 mmHg 66%
    18:00 +16°C° 0.1 mm 2 mps 689 mmHg 76%
    19:00 +14°C° 0.1 mm 2 mps 689 mmHg 86%
    20:00 +13°C° 0 mm 1 mps 689 mmHg 89%
    21:00 +12°C° 0 mm 1 mps 689 mmHg 92%
    22:00 +12°C° 0 mm 1 mps 690 mmHg 94%
    23:00 +11°C° 0 mm 1 mps 689 mmHg 94%

    21 August, Monday

    Time Temperature Precipitation Wind Pressure Humidity
    00:00 +11°C° 0 mm 1 mps 689 mmHg 95%
    01:00 +10°C° 0 mm 1 mps 689 mmHg 95%
    02:00 +10°C° 0 mm 1 mps 689 mmHg 94%
    03:00 +9°C° 0 mm 1 mps 689 mmHg 92%
    04:00 +9°C° 0 mm 1 mps 689 mmHg 91%
    05:00 +10°C° 0 mm 1 mps 689 mmHg 87%
    06:00 +11°C° 0 mm 1 mps 689 mmHg 82%
    07:00 +13°C° 0 mm 1 mps 689 mmHg 78%
    08:00 +15°C° 0 mm 1 mps 690 mmHg 68%
    09:00 +17°C° 0 mm 2 mps 690 mmHg 58%
    10:00 +19°C° 0 mm 2 mps 690 mmHg 49%
    11:00 +20°C° 0 mm 2 mps 690 mmHg 46%
    12:00 +21°C° 0 mm 2 mps 690 mmHg 43%
    13:00 +23°C° 0 mm 2 mps 690 mmHg 39%
    14:00 +23°C° 0 mm 2 mps 690 mmHg 42%
    15:00 +21°C° 0 mm 3 mps 689 mmHg 44%
    16:00 +21°C° 0 mm 3 mps 689 mmHg 46%
    17:00 +19°C° 0 mm 2 mps 689 mmHg 58%
    18:00 +17°C° 0 mm 2 mps 689 mmHg 70%
    19:00 +15°C° 0 mm 2 mps 688 mmHg 82%
    20:00 +13°C° 0 mm 1 mps 689 mmHg 85%
    21:00 +12°C° 0 mm 1 mps 689 mmHg 89%
    22:00 +11°C° 0 mm 1 mps 689 mmHg 93%
    23:00 +10°C° 0 mm 1 mps 689 mmHg 92%

    22 August, Tuesday

    Time Temperature Precipitation Wind Pressure Humidity
    00:00 +10°C° 0 mm 1 mps 688 mmHg 91%
    01:00 +10°C° 0 mm 1 mps 688 mmHg 90%
    02:00 +10°C° 0 mm 1 mps 688 mmHg 87%
    03:00 +10°C° 0 mm 1 mps 688 mmHg 85%
    04:00 +9°C° 0 mm 1 mps 688 mmHg 82%
    05:00 +11°C° 0 mm 1 mps 688 mmHg 75%
    06:00 +13°C° 0 mm 1 mps 689 mmHg 68%
    07:00 +14°C° 0 mm 1 mps 689 mmHg 61%
    08:00 +18°C° 0 mm 1 mps 689 mmHg 52%
    09:00 +20°C° 0 mm 1 mps 689 mmHg 44%
    10:00 +23°C° 0 mm 1 mps 690 mmHg 35%
    11:00 +24°C° 0 mm 1 mps 689 mmHg 33%
    12:00 +25°C° 0 mm 1 mps 689 mmHg 32%
    13:00 +26°C° 0 mm 2 mps 689 mmHg 30%
    14:00 +25°C° 0 mm 2 mps 689 mmHg 33%
    15:00 +25°C° 0 mm 2 mps 688 mmHg 36%
    16:00 +25°C° 0 mm 2 mps 688 mmHg 38%
    17:00 +21°C° 0 mm 2 mps 688 mmHg 52%
    18:00 +19°C° 0 mm 1 mps 687 mmHg 66%
    19:00 +16°C° 0 mm 1 mps 687 mmHg 79%
    20:00 +15°C° 0 mm 1 mps 687 mmHg 81%
    21:00 +14°C° 0 mm 1 mps 687 mmHg 83%
    22:00 +13°C° 0 mm 1 mps 687 mmHg 84%
    23:00 +13°C° 0 mm 1 mps 687 mmHg 82%

    23 August, Wednesday

    Time Temperature Precipitation Wind Pressure Humidity
    00:00 +12°C° 0 mm 1 mps 687 mmHg 80%
    01:00 +12°C° 0 mm 1 mps 687 mmHg 78%
    02:00 +12°C° 0 mm 1 mps 686 mmHg 76%
    03:00 +12°C° 0 mm 1 mps 686 mmHg 73%
    04:00 +12°C° 0 mm 1 mps 686 mmHg 71%
    05:00 +14°C° 0 mm 1 mps 687 mmHg 66%
    06:00 +15°C° 0 mm 1 mps 687 mmHg 60%
    07:00 +18°C° 0 mm 1 mps 688 mmHg 55%
    08:00 +20°C° 0 mm 1 mps 688 mmHg 48%
    09:00 +23°C° 0 mm 1 mps 688 mmHg 40%
    10:00 +26°C° 0 mm 1 mps 689 mmHg 32%
    11:00 +27°C° 0 mm 1 mps 689 mmHg 32%
    12:00 +27°C° 0 mm 1 mps 689 mmHg 31%
    13:00 +28°C° 0 mm 2 mps 688 mmHg 31%
    14:00 +28°C° 0 mm 2 mps 688 mmHg 33%
    15:00 +27°C° 0 mm 2 mps 688 mmHg 36%
    16:00 +27°C° 0 mm 2 mps 688 mmHg 38%
    17:00 +25°C° 0 mm 2 mps 688 mmHg 51%
    18:00 +22°C° 0 mm 1 mps 687 mmHg 63%
    19:00 +19°C° 0 mm 1 mps 687 mmHg 76%
    20:00 +18°C° 0 mm 1 mps 687 mmHg 78%
    21:00 +16°C° 0 mm 1 mps 687 mmHg 80%
    22:00 +15°C° 0 mm 1 mps 687 mmHg 82%
    23:00 +15°C° 0 mm 1 mps 687 mmHg 80%
    Show more